User: anonymous   Login
Location: Unspecified
(0.0000°N, 0.0000°E)
Time: 23:59:42
(UTC+00:00)
Language:

KUIPER-00078 - Orbit

View from above orbital plane
View from above orbital plane
View from above satellite
View from above satellite

Ground track
Ground track

The orbit is defined by the following mean orbital elements,

1 64825U          26145.17547719 +.00000000 +00000-0 +37938-3 0 00000
2 64825  51.9017 317.3713 0000694 120.9588 239.1443 14.79938914    08
Epoch (UTC): 25 May 2026 04:12:41
Eccentricity: 0.0000694
inclination: 51.9017°
perigee height: 629 km
apogee height: 630 km
right ascension of ascending node: 317.3713°
argument of perigee: 120.9588°
revolutions per day: 14.79938914
mean anomaly at epoch: 239.1443°

The dashed part of the orbit path shows where the satellite is in the earth's shadow,  

DLR